Погода в Калинове

Россия / Свердловская область     57°08′00″N   60°09′00″E
темп.,
°C
ветер,
м/с
пор.,
м/с
влажн.,
%
обл.,
%
осадки,
мм/ч
давл.,
гПа
погр.,
м
19 апреля, пн
пн1923:00−3св38500 0.0 1033366
02:00−4всв26540 0.0 1034247
05:00−5всв11570 0.0 103510
08:00−3в23403 0.0 1036742
11:00+1всв23305 0.0 10361702
14:00+3ссв232815 0.0 10342017
17:00+3с232964 0.0 10332067
20:000зсз00445 0.0 103410
20 апреля, вт
вт2023:00−3с01545 0.0 103510
02:00−3зюз115613 0.0 103410
05:00−3зюз23565 0.0 103561
08:00+1зсз484827 0.0 1034536
11:00+4зсз463276 0.0 10331229
14:00+7сз56322 0.0 10311544
17:00+8сз57375 0.0 10301545
20:00+4зсз37560 0.0 1030171
21 апреля, ср
ср2123:000зсз25700 0.0 103196
02:00−1з22740 0.0 103119
05:00−1з11760 0.0 103210
08:00+3з11590 0.0 1032178
11:00+9ююз01430 0.0 1032895
14:00+12юв11360 0.0 10311366
17:00+12юв22340 0.0 10311528
20:00+8юв22544 0.0 103241
22 апреля, чт
чт2223:00+5ююв24635 0.0 103369
02:00+3ю26725 0.0 1033101
05:00+2ю23736 0.0 103457
08:00+6ю365746 0.0 1034236
11:00+12ю343924 0.0 10331098
14:00+15ю453194 0.0 10321792
17:00+15ююз452999 0.0 10312061
20:00+10зюз2251100 0.0 103242
23 апреля, пт
пт2323:00+7ююз1155100 0.0 103310
02:00+6зюз1158100 0.0 103310
05:00+5ююз225999 0.0 103411
08:00+8ююз135277 0.0 1034148
11:00+12ююв2437100 0.0 10331293
14:00+14ю4633100 0.0 10321956
17:00+14ю4636100 0.0 10312186
20:00+11ю2255100 0.0 103131